User: anonymous   Login
Location: Cahas Mountain Overlook
(37.0833°N, 80.1000°W)
Time: 00:48:47
(UTC-04:00)
Language:

Tiros 1 despin weight - Orbit

View from above orbital plane
View from above orbital plane
View from above satellite
View from above satellite

Ground track
Ground track

The orbit data is extracted from the following two-line orbital elements,

1   115U 60002D   22176.13779943  .00000965  00000-0  13893-3 0  9993
2   115  48.1680 325.5904 0034600 261.0227  98.6769 14.84417778322527
Epoch (UTC): 25 June 2022 03:18:25
Eccentricity: 0.0034600
inclination: 48.1680°
perigee height: 591 km
apogee height: 639 km
right ascension of ascending node: 325.5904°
argument of perigee: 261.0227°
revolutions per day: 14.84417778
mean anomaly at epoch: 98.6769°
orbit number at epoch: 32252

The dashed part of the orbit path shows where the satellite is in the earth's shadow,  

DLR